W4SNA-2 Weather Reports


time (UTC)temp
F
wind
direction
speed
knots
gust
knots
rain 1hr
in
rain 24hr
in
rain mn
in
humidity
%
barometer
mb
20220124110800 32 0 0.0 3.5 0.00 0.00 0.00 62 970.4
20220124110305 32 0 0.0 3.5 0.00 0.00 0.00 62 970.3
20220124105800 32 0 0.0 1.7 0.00 0.00 0.00 62 970.3
20220124105026 32 0 0.0 3.5 0.00 0.00 0.00 62 970.2
20220124104530 31 0 0.0 3.5 0.00 0.00 0.00 62 970.2
20220124104026 31 0 0.0 4.3 0.00 0.00 0.00 62 970.1
20220124103526 31 0 0.0 4.3 0.00 0.00 0.00 63 970.2
20220124102617 31 0 0.0 3.5 0.00 0.00 0.00 63 970.0
20220124102122 31 342 0.9 3.5 0.00 0.00 0.00 64 969.8
20220124101620 31 342 1.7 3.5 0.00 0.00 0.00 64 969.6
20220124101122 31 344 1.7 3.5 0.00 0.00 0.00 65 969.6
20220124100604 31 344 1.7 6.1 0.00 0.00 0.00 65 969.5
20220124100106 31 354 3.5 6.1 0.00 0.00 0.00 64 969.6
20220124095604 31 345 3.5 5.2 0.00 0.00 0.00 64 969.6
20220124095104 31 333 1.7 5.2 0.00 0.00 0.00 64 969.7
20220124094605 31 341 2.6 5.2 0.00 0.00 0.00 64 969.7
20220124093741 31 335 3.5 7.8 0.00 0.00 0.00 64 969.8
20220124092745 31 349 4.3 8.7 0.00 0.00 0.00 64 969.7
20220124092244 31 335 3.5 5.2 0.00 0.00 0.00 63 969.7
20220124091744 31 349 3.5 5.2 0.00 0.00 0.00 63 969.8
20220124091244 31 333 3.5 5.2 0.00 0.00 0.00 63 969.7
20220124090744 31 338 3.5 7.0 0.00 0.00 0.00 63 969.7
20220124090244 31 338 3.5 7.0 0.00 0.00 0.00 63 969.7
20220124085748 31 335 2.6 6.1 0.00 0.00 0.00 63 969.8
20220124085244 31 343 2.6 6.1 0.00 0.00 0.00 63 970.0
20220124084600 31 334 1.7 7.0 0.00 0.00 0.00 63 970.0
20220124084053 31 335 3.5 7.0 0.00 0.00 0.00 63 969.9
20220124083557 31 331 2.6 9.6 0.00 0.00 0.00 63 970.0
20220124083054 31 333 2.6 9.6 0.00 0.00 0.00 63 969.9
20220124082602 31 320 2.6 7.0 0.00 0.00 0.00 63 969.9
20220124081955 31 327 1.7 5.2 0.00 0.00 0.00 64 969.9
20220124081455 32 322 0.9 7.0 0.00 0.00 0.00 64 969.9
20220124081007 31 328 2.6 7.0 0.00 0.00 0.00 64 970.0
20220124080457 32 326 2.6 9.6 0.00 0.00 0.00 64 969.9
20220124075959 32 324 3.5 9.6 0.00 0.00 0.00 64 969.7
20220124075254 31 328 3.5 7.8 0.00 0.00 0.00 65 969.8
20220124074808 31 313 1.7 7.0 0.00 0.00 0.00 65 969.7
20220124074254 31 332 1.7 5.2 0.00 0.00 0.00 66 969.6
20220124073755 31 0 0.0 5.2 0.00 0.00 0.00 66 969.7
20220124073255 32 321 0.9 5.2 0.00 0.00 0.00 66 969.5
20220124072754 32 322 0.9 4.3 0.00 0.00 0.00 66 969.5
20220124072254 32 322 1.7 4.3 0.00 0.00 0.00 66 969.5
20220124071800 32 321 0.9 4.3 0.00 0.00 0.00 66 969.4
20220124071254 32 324 0.9 3.5 0.00 0.00 0.00 66 969.3
20220124070558 32 327 0.9 4.3 0.00 0.00 0.00 66 969.3
20220124070034 32 330 0.9 4.3 0.00 0.00 0.00 65 969.2
20220124065538 32 331 1.7 6.1 0.00 0.00 0.00 65 969.2
20220124065034 32 312 1.7 6.1 0.00 0.00 0.00 64 969.3
20220124064534 32 297 1.7 9.6 0.00 0.00 0.00 64 969.4
20220124064034 33 328 1.7 9.6 0.00 0.00 0.00 64 969.4
20220124063534 33 341 3.5 7.8 0.00 0.00 0.00 64 969.3
20220124063000 33 335 4.3 7.8 0.00 0.00 0.00 64 969.3
20220124062456 33 324 3.5 10.4 0.00 0.00 0.00 64 969.3
20220124062010 33 318 2.6 11.3 0.00 0.00 0.00 64 969.3
20220124061456 33 316 3.5 11.3 0.00 0.00 0.00 64 969.3
20220124061000 33 338 3.5 10.4 0.00 0.00 0.00 64 969.4
20220124060456 33 322 2.6 10.4 0.00 0.00 0.00 64 969.5
20220124055600 33 312 2.6 11.3 0.00 0.00 0.00 63 969.5
20220124055059 33 326 2.6 10.4 0.00 0.00 0.00 63 969.5
20220124054600 33 323 4.3 10.4 0.00 0.00 0.00 64 969.5
20220124054100 33 322 3.5 9.6 0.00 0.00 0.00 63 969.5
20220124053612 33 311 2.6 8.7 0.00 0.00 0.00 63 969.5
20220124052910 33 319 1.7 9.6 0.00 0.00 0.00 62 969.6
20220124052411 33 321 1.7 9.6 0.00 0.00 0.00 62 969.6
20220124051910 33 308 2.6 9.6 0.00 0.00 0.00 62 969.7
20220124051411 33 356 0.9 9.6 0.00 0.00 0.00 61 969.7
20220124050912 33 334 1.7 9.6 0.00 0.00 0.00 61 969.8
20220124050410 34 335 1.7 9.6 0.00 0.00 0.00 60 969.7
20220124045525 34 335 0.9 7.0 0.00 0.00 0.00 59 969.8
20220124045025 34 349 0.9 7.8 0.00 0.00 0.00 59 969.8
20220124044525 34 339 1.7 7.8 0.00 0.00 0.00 59 969.7
20220124044025 34 328 0.9 7.0 0.00 0.00 0.00 58 969.6
20220124043525 34 0 0.0 5.2 0.00 0.00 0.00 58 969.8
20220124043025 34 324 2.6 5.2 0.00 0.00 0.00 57 969.7
20220124042531 34 325 1.7 5.2 0.00 0.00 0.00 57 969.8
20220124042025 35 333 1.7 7.8 0.00 0.00 0.00 57 969.7
20220124041525 35 327 1.7 8.7 0.00 0.00 0.00 56 969.8
20220124041025 35 324 1.7 8.7 0.00 0.00 0.00 56 969.8
20220124040525 35 286 1.7 7.8 0.00 0.00 0.00 56 969.9
20220124040025 35 283 0.9 7.0 0.00 0.00 0.00 55 969.9
20220124035525 35 0 0.0 6.1 0.00 0.00 0.00 56 969.8
20220124035025 36 270 0.9 6.1 0.00 0.00 0.00 55 969.8
20220124034525 36 298 1.7 7.0 0.00 0.00 0.00 55 969.8
20220124034025 36 293 2.6 8.7 0.00 0.00 0.00 55 969.7
20220124033525 36 278 2.6 10.4 0.00 0.00 0.00 55 969.7
20220124033025 36 298 2.6 10.4 0.00 0.00 0.00 55 969.6
20220124032525 36 313 3.5 10.4 0.00 0.00 0.00 55 969.3
20220124031626 36 310 3.5 9.6 0.00 0.00 0.00 55 969.4
20220124031126 36 311 2.6 9.6 0.00 0.00 0.00 55 969.5
20220124030634 36 307 3.5 9.6 0.00 0.00 0.00 54 969.4
20220124030126 36 309 1.7 9.6 0.00 0.00 0.00 54 969.3
20220124025628 36 316 1.7 8.7 0.00 0.00 0.00 54 969.3
20220124025126 36 315 1.7 10.4 0.00 0.00 0.00 54 969.5
20220124024633 36 318 3.5 10.4 0.00 0.00 0.00 54 969.4
20220124024128 36 311 2.6 7.8 0.00 0.00 0.00 54 969.5
20220124023626 36 317 2.6 10.4 0.00 0.00 0.00 54 969.5
20220124023126 37 322 3.5 10.4 0.00 0.00 0.00 54 969.7
20220124022628 37 302 2.6 11.3 0.00 0.00 0.00 53 969.5
20220124022133 37 319 4.3 11.3 0.00 0.00 0.00 53 969.5
20220124021627 37 310 2.6 8.7 0.00 0.00 0.00 52 969.5
20220124021126 37 294 2.6 9.6 0.00 0.00 0.00 51 969.5
20220124020627 38 279 2.6 9.6 0.00 0.00 0.00 50 969.3
20220124020127 38 281 1.7 9.6 0.00 0.00 0.00 49 969.4
20220124015627 38 286 3.5 9.6 0.00 0.00 0.00 49 969.4
20220124015127 38 287 0.9 12.2 0.00 0.00 0.00 49 969.3
20220124014627 38 248 3.5 12.2 0.00 0.00 0.00 49 969.6
20220124014127 38 299 2.6 8.7 0.00 0.00 0.00 49 969.5
20220124013517 38 306 2.6 7.0 0.00 0.00 0.00 49 969.3
20220124013017 38 284 2.6 7.0 0.00 0.00 0.00 51 969.4
20220124012130 38 290 1.7 8.7 0.00 0.00 0.00 52 969.5
20220124011630 38 264 1.7 8.7 0.00 0.00 0.00 52 969.5
20220124011130 39 304 0.9 7.0 0.00 0.00 0.00 52 969.7
20220124010630 39 0 0.0 8.7 0.00 0.00 0.00 51 969.6
20220124010130 39 264 0.9 11.3 0.00 0.00 0.00 52 969.8
20220124005630 39 251 4.3 11.3 0.00 0.00 0.00 51 969.7
20220124004648 38 228 1.7 9.6 0.00 0.00 0.00 53 969.7
20220124004148 38 228 2.6 10.4 0.00 0.00 0.00 53 969.6
20220124003649 37 218 3.5 10.4 0.00 0.00 0.00 54 969.6
20220124003148 37 198 0.9 10.4 0.00 0.00 0.00 57 969.3
20220124002648 37 200 0.9 10.4 0.00 0.00 0.00 57 969.4
20220124002148 37 196 1.7 7.8 0.00 0.00 0.00 57 969.3
20220124001648 37 199 2.6 7.8 0.00 0.00 0.00 57 969.3
20220124001148 37 193 0.9 6.1 0.00 0.00 0.00 58 969.4
20220124000648 37 202 0.9 7.0 0.00 0.00 0.00 58 969.5
20220124000148 37 207 1.7 7.0 0.00 0.00 0.00 58 969.5
20220123235359 36 198 1.7 8.7 0.00 0.00 0.00 59 969.4
20220123234859 36 201 2.6 8.7 0.00 0.00 0.00 59 969.4
20220123234401 36 199 3.5 8.7 0.00 0.00 0.00 59 969.4
20220123233859 36 204 2.6 7.8 0.00 0.00 0.00 58 969.5
20220123233210 36 195 4.3 8.7 0.00 0.00 0.00 57 969.4
20220123232709 37 195 2.6 7.0 0.00 0.00 0.00 56 969.4
20220123232210 37 195 4.3 7.8 0.00 0.00 0.00 56 969.5
20220123231709 37 200 2.6 8.7 0.00 0.00 0.00 55 969.3
20220123231209 37 190 2.6 8.7 0.00 0.00 0.00 55 969.3
20220123230709 37 199 2.6 7.8 0.00 0.00 0.00 54 969.4
20220123230209 37 194 3.5 7.8 0.00 0.00 0.00 53 969.3
20220123225709 37 192 2.6 7.0 0.00 0.00 0.00 53 969.4
20220123224927 37 197 4.3 7.8 0.00 0.00 0.00 52 969.2
20220123224430 37 196 3.5 7.8 0.00 0.00 0.00 52 969.2
20220123223936 37 194 2.6 7.8 0.00 0.00 0.00 52 969.1
20220123223431 37 195 2.6 7.8 0.00 0.00 0.00 53 969.2
20220123222927 37 194 3.5 7.0 0.00 0.00 0.00 52 969.1
20220123222427 37 186 1.7 7.8 0.00 0.00 0.00 52 969.1
20220123221927 38 191 1.7 7.8 0.00 0.00 0.00 51 969.2
20220123220955 38 191 4.3 8.7 0.00 0.00 0.00 50 969.0
20220123220455 38 192 0.9 8.7 0.00 0.00 0.00 51 968.9
20220123215956 38 199 2.6 8.7 0.00 0.00 0.00 49 969.0
20220123215455 39 0 0.0 8.7 0.00 0.00 0.00 50 969.0
20220123214956 39 199 3.5 8.7 0.00 0.00 0.00 48 969.0
20220123214455 39 191 0.9 8.7 0.00 0.00 0.00 49 969.0
20220123213955 39 196 4.3 7.8 0.00 0.00 0.00 48 969.2
20220123213455 40 0 0.0 4.3 0.00 0.00 0.00 49 969.3
20220123212642 40 192 4.3 9.6 0.00 0.00 0.00 47 969.1
20220123212142 40 194 1.7 9.6 0.00 0.00 0.00 48 969.1
20220123211642 40 201 1.7 9.6 0.00 0.00 0.00 48 969.2
20220123211142 40 193 2.6 9.6 0.00 0.00 0.00 48 969.2
20220123210643 41 189 1.7 7.8 0.00 0.00 0.00 48 969.2
20220123210142 41 194 1.7 7.8 0.00 0.00 0.00 49 969.4
20220123205646 40 192 0.9 6.1 0.00 0.00 0.00 51 969.5
20220123205144 40 0 0.0 6.1 0.00 0.00 0.00 50 969.6
20220123204642 40 198 0.9 8.7 0.00 0.00 0.00 50 969.7
20220123204142 39 0 0.0 8.7 0.00 0.00 0.00 51 969.7
20220123203645 40 0 0.0 3.5 0.00 0.00 0.00 49 969.7
20220123203142 40 0 0.0 3.5 0.00 0.00 0.00 50 969.7
20220123202644 39 0 0.0 2.6 0.00 0.00 0.00 51 969.8
20220123202143 39 0 0.0 3.5 0.00 0.00 0.00 51 969.9
20220123201642 39 0 0.0 7.0 0.00 0.00 0.00 52 969.9
20220123201142 39 0 0.0 7.0 0.00 0.00 0.00 49 970.1
20220123195946 39 0 0.0 5.2 0.00 0.00 0.00 48 970.2
20220123195446 39 0 0.0 5.2 0.00 0.00 0.00 49 970.1
20220123194642 39 0 0.0 7.0 0.00 0.00 0.00 49 970.3
20220123194144 39 0 0.0 7.0 0.00 0.00 0.00 48 970.3
20220123193644 40 205 0.9 7.0 0.00 0.00 0.00 48 970.2
20220123193141 40 203 1.7 6.1 0.00 0.00 0.00 47 970.2
20220123192646 41 0 0.0 1.7 0.00 0.00 0.00 48 970.4
20220123192143 41 0 0.0 7.0 0.00 0.00 0.00 48 970.4
20220123191641 41 0 0.0 7.8 0.00 0.00 0.00 48 970.4
20220123191141 41 0 0.0 7.8 0.00 0.00 0.00 47 970.3
20220123190233 43 0 0.0 2.6 0.00 0.00 0.00 44 970.7
20220123185730 43 0 0.0 5.2 0.00 0.00 0.00 46 970.5
20220123185231 43 0 0.0 5.2 0.00 0.00 0.00 46 970.5
20220123184731 42 0 0.0 2.6 0.00 0.00 0.00 46 970.6
20220123184200 42 200 1.7 11.3 0.00 0.00 0.00 44 970.7
20220123183700 43 0 0.0 5.2 0.00 0.00 0.00 45 970.7
20220123183200 43 182 0.9 6.1 0.00 0.00 0.00 44 970.6
20220123182700 43 0 0.0 6.1 0.00 0.00 0.00 47 970.8
20220123182200 42 0 0.0 3.5 0.00 0.00 0.00 47 970.9
20220123181458 41 202 0.9 7.8 0.00 0.00 0.00 47 971.2
20220123181001 41 0 0.0 7.8 0.00 0.00 0.00 48 971.1
20220123180501 41 187 0.9 7.8 0.00 0.00 0.00 49 971.1
20220123180002 40 194 2.6 7.8 0.00 0.00 0.00 49 971.4
20220123175216 39 203 0.9 10.4 0.00 0.00 0.00 50 971.8
20220123174704 39 193 3.5 10.4 0.00 0.00 0.00 51 971.9
20220123174207 39 0 0.0 7.8 0.00 0.00 0.00 53 972.1
20220123173704 39 182 0.9 6.1 0.00 0.00 0.00 51 972.1
20220123172821 38 189 1.7 9.6 0.00 0.00 0.00 55 972.1
20220123172319 38 191 3.5 8.7 0.00 0.00 0.00 52 972.3
20220123171822 38 188 0.9 6.1 0.00 0.00 0.00 54 972.4
20220123171319 37 185 0.9 6.1 0.00 0.00 0.00 55 972.5
20220123170819 37 200 0.9 6.1 0.00 0.00 0.00 54 972.6
20220123170319 36 0 0.0 7.0 0.00 0.00 0.00 57 972.5
20220123165820 36 207 0.9 7.0 0.00 0.00 0.00 55 972.6
20220123165326 36 198 1.7 7.0 0.00 0.00 0.00 55 972.8
20220123164820 36 201 0.9 7.0 0.00 0.00 0.00 56 972.9
20220123164325 36 0 0.0 7.8 0.00 0.00 0.00 54 973.1
20220123163820 36 196 2.6 7.8 0.00 0.00 0.00 54 973.3
20220123163322 37 204 1.7 7.0 0.00 0.00 0.00 53 973.4
20220123162820 37 202 1.7 9.6 0.00 0.00 0.00 54 973.6
20220123162319 36 195 3.5 9.6 0.00 0.00 0.00 53 973.6
20220123161641 36 196 2.6 7.8 0.00 0.00 0.00 53 973.6
20220123161145 36 194 1.7 7.8 0.00 0.00 0.00 55 973.8
20220123160526 36 202 2.6 7.0 0.00 0.00 0.00 55 973.8
20220123160026 36 199 1.7 7.0 0.00 0.00 0.00 56 974.0
20220123155432 34 194 0.9 5.2 0.00 0.00 0.00 61 974.0
20220123154606 33 0 0.0 3.5 0.00 0.00 0.00 62 974.1
20220123154059 33 192 0.9 3.5 0.00 0.00 0.00 61 974.0
20220123153559 33 239 0.9 3.5 0.00 0.00 0.00 61 974.3
20220123152850 31 0 0.0 7.8 0.00 0.00 0.00 61 974.3
20220123152403 30 266 0.9 7.8 0.00 0.00 0.00 61 974.3
20220123151852 30 290 2.6 7.0 0.00 0.00 0.00 61 974.4
20220123151349 30 321 2.6 8.7 0.00 0.00 0.00 62 974.5
20220123150849 29 319 3.5 8.7 0.00 0.00 0.00 62 974.5
20220123150401 29 313 3.5 7.8 0.00 0.00 0.00 63 974.6
20220123145853 29 327 4.3 7.8 0.00 0.00 0.00 63 974.4
20220123145357 29 326 5.2 7.8 0.00 0.00 0.00 63 974.6
20220123144934 29 326 2.6 7.8 0.00 0.00 0.00 63 974.6
20220123144357 28 331 5.2 7.8 0.00 0.00 0.00 63 974.5
20220123143730 28 331 5.2 8.7 0.00 0.00 0.00 63 974.5
20220123143238 28 330 4.3 8.7 0.00 0.00 0.00 63 974.5
20220123142736 29 313 4.3 9.6 0.00 0.00 0.00 63 974.9
20220123142233 29 328 4.3 9.6 0.00 0.00 0.00 62 974.8
20220123141730 29 330 3.5 8.7 0.00 0.00 0.00 62 974.9
20220123141230 29 333 4.3 8.7 0.00 0.00 0.00 62 975.0
20220123140730 29 334 4.3 8.7 0.00 0.00 0.00 63 975.0
20220123140233 28 320 3.5 7.8 0.00 0.00 0.00 63 975.0
20220123135730 28 330 3.5 7.8 0.00 0.00 0.00 64 975.0
20220123135233 27 336 4.3 7.8 0.00 0.00 0.00 65 975.2
20220123134730 27 332 4.3 9.6 0.00 0.00 0.00 65 975.2
20220123134237 27 328 5.2 9.6 0.00 0.00 0.00 65 975.2
20220123133730 27 335 6.1 10.4 0.00 0.00 0.00 66 975.2
20220123133233 27 335 6.1 10.4 0.00 0.00 0.00 66 975.2
20220123132729 27 334 6.1 10.4 0.00 0.00 0.00 65 975.3
20220123132229 27 337 7.0 10.4 0.00 0.00 0.00 66 975.2
20220123131729 27 334 7.0 10.4 0.00 0.00 0.00 65 975.3
20220123130457 26 332 7.0 9.6 0.00 0.00 0.00 66 975.3
20220123130008 26 333 6.1 11.3 0.00 0.00 0.00 66 975.5
20220123125500 26 335 6.1 11.3 0.00 0.00 0.00 65 975.5
20220123124956 26 332 7.0 9.6 0.00 0.00 0.00 65 975.5
20220123124456 26 334 6.1 9.6 0.00 0.00 0.00 65 975.5
20220123123956 27 335 6.1 9.6 0.00 0.00 0.00 65 975.6
20220123123459 26 337 7.0 9.6 0.00 0.00 0.00 65 975.6
20220123123002 26 333 7.0 10.4 0.00 0.00 0.00 64 975.6
20220123122456 26 336 7.0 10.4 0.00 0.00 0.00 64 975.7
20220123121956 26 340 7.0 11.3 0.00 0.00 0.00 65 975.7
20220123121506 26 336 7.0 11.3 0.00 0.00 0.00 64 975.8
20220123120956 27 339 7.8 11.3 0.00 0.00 0.00 63 975.8
20220123120501 27 338 7.0 10.4 0.00 0.00 0.00 63 975.9
20220123120006 27 334 7.0 10.4 0.00 0.00 0.00 63 975.8
20220123115459 27 340 7.0 10.4 0.00 0.00 0.00 62 975.6
20220123115005 27 335 7.0 10.4 0.00 0.00 0.00 62 975.7
20220123114458 27 332 6.1 11.3 0.00 0.00 0.00 62 975.7
20220123113956 27 337 6.1 14.8 0.00 0.00 0.00 61 975.7
20220123113500 27 334 7.0 14.8 0.00 0.00 0.00 61 975.8
20220123113001 27 336 7.8 11.3 0.00 0.00 0.00 61 975.7
20220123112456 27 331 7.0 11.3 0.00 0.00 0.00 61 975.9
20220123111956 27 330 6.1 9.6 0.00 0.00 0.00 61 975.9
20220123111458 27 337 6.1 11.3 0.00 0.00 0.00 60 975.9
20220123110956 27 331 5.2 11.3 0.00 0.00 0.00 60 975.9